Location: Forst
(46.9333°N, 15.4333°E)
Time: 05:44:07
(UTC+00:00)

Meteor 1-4 Rocket - Pass Details

Date: 01 December 2020
Orbit: 449 x 500 km, 81.2° (Epoch: 18 January)

Event Time Altitude Azimuth Distance (km) Brightness Sun altitude
Rises 15:56:07 0° 161° (SSE) 2,522 6.3 -7.6°
Reaches altitude 10° 15:58:28 10° 148° (SSE) 1,639 5.2 -8.0°
Maximum altitude 16:01:25 24° 92° (E) 1,007 3.7 -8.4°
Drops below altitude 10° 16:04:20 10° 37° (NE) 1,627 4.7 -8.9°
Enters shadow 16:04:46 - 33° (NNE) 1,778 4.9 -8.9°
